EW8702 Weather Reports


Display with metric or nautical units.
time (UTC)temp
F
wind
direction
speed
MPH
gust
MPH
rain 1hr
in
rain 24hr
in
rain mn
in
humidity
%
barometer
mb
20260508050122 54 288 1.0 4.0 0.00 0.00 0.00 51 1014.9
20260508045122 54 305 0.0 3.0 0.00 0.00 0.00 50 1014.8
20260508044143 53 317 1.0 5.0 0.00 0.00 0.00 51 1014.7
20260508043122 54 296 0.0 2.0 0.00 0.00 0.00 51 1014.7
20260508042143 54 295 1.0 3.0 0.00 0.00 0.00 51 1014.6
20260508041122 54 282 1.0 4.0 0.00 0.00 0.00 52 1014.5
20260508040122 55 283 1.0 4.0 0.00 0.00 0.00 51 1014.3
20260508035122 55 275 0.0 4.0 0.00 0.00 0.00 51 1014.2
20260508034122 56 310 2.0 5.0 0.00 0.00 0.00 48 1014.0
20260508033122 57 265 3.0 6.0 0.00 0.00 0.00 48 1014.0
20260508032122 59 257 1.0 4.0 0.00 0.00 0.00 45 1013.9
20260508031144 60 294 1.0 3.0 0.00 0.00 0.00 41 1013.6
20260508030122 61 324 1.0 3.0 0.00 0.00 0.00 41 1013.5
20260508025122 62 331 1.0 2.0 0.00 0.00 0.00 37 1013.4
20260508024143 63 319 1.0 4.0 0.00 0.00 0.00 37 1013.4
20260508023122 64 247 0.0 4.0 0.00 0.00 0.00 41 1013.3
20260508022143 65 211 1.0 3.0 0.00 0.00 0.00 33 1013.3
20260508021122 65 256 2.0 6.0 0.00 0.00 0.00 34 1013.3
20260508020143 66 277 1.0 4.0 0.00 0.00 0.00 31 1013.2
20260508015122 67 224 2.0 4.0 0.00 0.00 0.00 30 1013.2
20260508014122 68 204 1.0 4.0 0.00 0.00 0.00 29 1013.2
20260508013122 68 229 2.0 7.0 0.00 0.00 0.00 31 1013.2
20260508012122 68 246 3.0 5.0 0.00 0.00 0.00 29 1013.2
20260508011143 68 240 3.0 9.0 0.00 0.00 0.00 29 1013.2
20260508010122 69 251 4.0 10.0 0.00 0.00 0.00 28 1013.2
20260508005122 69 268 3.0 10.0 0.00 0.00 0.00 29 1013.2
20260508004122 69 268 6.0 13.0 0.00 0.00 0.00 28 1013.3
20260508003122 69 261 3.0 11.0 0.00 0.00 0.00 28 1013.3
20260508002122 69 253 5.0 10.0 0.00 0.00 0.00 32 1013.3
20260508001122 69 190 3.0 6.0 0.00 0.00 0.00 29 1013.3
20260508000122 69 253 2.0 4.0 0.00 0.00 0.00 30 1013.6
20260507235122 69 257 4.0 9.0 0.00 0.00 0.00 31 1013.7
20260507234122 69 256 4.0 10.0 0.00 0.00 0.00 36 1013.7
20260507233122 69 269 5.0 11.0 0.00 0.00 0.00 30 1013.9
20260507232122 69 259 5.0 9.0 0.00 0.00 0.00 30 1014.1
20260507231122 69 258 5.0 12.0 0.00 0.00 0.00 30 1014.2
20260507230122 69 223 3.0 8.0 0.00 0.00 0.00 33 1014.2
20260507225122 69 234 3.0 6.0 0.00 0.00 0.00 31 1014.4
20260507224122 68 254 2.0 6.0 0.00 0.00 0.00 30 1014.6
20260507223122 68 219 3.0 8.0 0.00 0.00 0.00 31 1014.8
20260507222143 66 238 2.0 6.0 0.00 0.00 0.00 33 1014.9
20260507221122 65 268 1.0 4.0 0.00 0.00 0.00 33 1015.1
20260507220122 65 260 2.0 7.0 0.00 0.00 0.00 31 1015.2
20260507215122 66 262 2.0 8.0 0.00 0.00 0.00 30 1015.4
20260507214122 66 231 2.0 4.0 0.00 0.00 0.00 30 1015.5
20260507213122 65 268 3.0 8.0 0.00 0.00 0.00 32 1015.6
20260507212122 66 226 2.0 4.0 0.00 0.00 0.00 32 1015.8
20260507211143 66 243 4.0 12.0 0.00 0.00 0.00 32 1016.0
20260507210122 67 231 4.0 9.0 0.00 0.00 0.00 31 1016.0
20260507205122 67 259 5.0 12.0 0.00 0.00 0.00 30 1015.9
20260507204122 68 246 5.0 12.0 0.00 0.00 0.00 29 1015.9
20260507203122 68 248 4.0 9.0 0.00 0.00 0.00 31 1016.0
20260507202122 67 249 5.0 11.0 0.00 0.00 0.00 28 1016.1
20260507201122 66 246 5.0 10.0 0.00 0.00 0.00 27 1016.0
20260507200122 65 213 5.0 11.0 0.00 0.00 0.00 30 1016.1
20260507195122 65 221 5.0 11.0 0.00 0.00 0.00 29 1016.2
20260507194122 65 243 5.0 11.0 0.00 0.00 0.00 34 1016.3
20260507193122 65 245 5.0 9.0 0.00 0.00 0.00 28 1016.4
20260507192122 64 232 5.0 13.0 0.00 0.00 0.00 29 1016.5
20260507191122 65 249 6.0 13.0 0.00 0.00 0.00 28 1016.5
20260507190143 65 234 5.0 10.0 0.00 0.00 0.00 28 1016.5
20260507185122 67 236 5.0 12.0 0.00 0.00 0.00 25 1016.6
20260507184122 66 227 6.0 12.0 0.00 0.00 0.00 26 1016.5
20260507183122 66 251 4.0 8.0 0.00 0.00 0.00 32 1016.6
20260507182122 66 233 6.0 11.0 0.00 0.00 0.00 28 1016.6
20260507181122 66 203 4.0 10.0 0.00 0.00 0.00 30 1016.7
20260507180122 63 215 5.0 13.0 0.00 0.00 0.00 32 1016.7
20260507175122 61 5 4.0 11.0 0.00 0.00 0.00 35 1016.9
20260507174122 59 125 0.0 2.0 0.00 0.00 0.00 47 1017.1
20260507173122 58 120 0.0 1.0 0.00 0.00 0.00 49 1017.2
20260507172122 58 164 1.0 3.0 0.00 0.00 0.00 45 1017.2
20260507171122 58 112 2.0 6.0 0.00 0.00 0.00 43 1017.3
20260507170143 58 126 2.0 7.0 0.00 0.00 0.00 43 1017.4
20260507165143 56 160 2.0 5.0 0.00 0.00 0.00 44 1017.5
20260507164123 54 184 1.0 4.0 0.00 0.00 0.00 49 1017.7
20260507163123 53 148 0.0 2.0 0.00 0.00 0.00 49 1017.9
20260507162122 52 160 1.0 4.0 0.00 0.00 0.00 49 1018.0
20260507161122 52 166 1.0 4.0 0.00 0.00 0.00 52 1018.2
20260507160122 51 162 0.0 1.0 0.00 0.00 0.00 53 1018.2
20260507155123 51 161 0.0 4.0 0.00 0.00 0.00 54 1018.4
20260507154122 51 0 0.0 0.0 0.00 0.00 0.00 56 1018.5
20260507153123 50 176 1.0 4.0 0.00 0.00 0.00 57 1018.5
20260507152123 48 247 0.0 2.0 0.00 0.00 0.00 61 1018.5
20260507151123 47 249 0.0 2.0 0.00 0.00 0.00 70 1018.5
20260507150122 45 281 0.0 1.0 0.00 0.00 0.00 70 1018.6
20260507145144 43 281 1.0 3.0 0.00 0.00 0.00 72 1018.7
20260507144143 42 271 2.0 6.0 0.00 0.00 0.00 75 1018.8
20260507143123 41 0 0.0 1.0 0.00 0.00 0.00 77 1018.9
20260507142123 40 269 0.0 2.0 0.00 0.00 0.00 78 1018.8
20260507141144 40 269 0.0 2.0 0.00 0.00 0.00 79 1018.7
20260507140122 39 269 0.0 2.0 0.00 0.00 0.00 79 1018.7
20260507135143 38 267 0.0 3.0 0.00 0.00 0.00 78 1018.7
20260507134122 39 0 0.0 0.0 0.00 0.00 0.00 78 1018.7
20260507133123 39 0 0.0 0.0 0.00 0.00 0.00 78 1018.6
20260507132122 38 263 0.0 3.0 0.00 0.00 0.00 78 1018.6
20260507131123 38 0 0.0 0.0 0.00 0.00 0.00 77 1018.5
20260507125122 38 0 0.0 0.0 0.00 0.00 0.00 76 1018.3
20260507124122 38 252 0.0 1.0 0.00 0.00 0.00 76 1018.4
20260507123122 38 0 0.0 0.0 0.00 0.00 0.00 76 1018.3
20260507122122 38 0 0.0 0.0 0.00 0.00 0.00 76 1018.4
20260507121122 38 0 0.0 0.0 0.00 0.00 0.00 75 1018.4
20260507120143 38 262 0.0 3.0 0.00 0.00 0.00 74 1018.4
20260507115122 38 0 0.0 0.0 0.00 0.00 0.00 74 1018.7
20260507114122 38 333 0.0 2.0 0.00 0.00 0.00 73 1018.6
20260507113122 38 0 0.0 1.0 0.00 0.00 0.00 73 1018.6
20260507112143 38 0 0.0 0.0 0.00 0.00 0.00 73 1018.3
20260507111122 38 333 0.0 2.0 0.00 0.00 0.00 73 1018.3
20260507110122 37 327 1.0 3.0 0.00 0.00 0.00 74 1018.3
20260507105122 37 311 2.0 4.0 0.00 0.00 0.00 74 1018.5
20260507104122 37 0 0.0 0.0 0.00 0.00 0.00 73 1018.6
20260507103122 37 0 0.0 0.0 0.00 0.00 0.00 73 1018.5
20260507102143 37 0 0.0 0.0 0.00 0.00 0.00 73 1018.5
20260507101122 38 288 0.0 2.0 0.00 0.00 0.00 72 1018.6
20260507100122 38 288 0.0 1.0 0.00 0.00 0.00 72 1018.7
20260507095122 38 287 0.0 1.0 0.00 0.00 0.00 72 1018.8
20260507094122 39 0 0.0 0.0 0.00 0.00 0.00 72 1018.8
20260507093122 38 0 0.0 1.0 0.00 0.00 0.00 72 1018.8
20260507092122 38 0 0.0 0.0 0.00 0.00 0.00 71 1018.9
20260507091122 39 281 1.0 3.0 0.00 0.00 0.00 70 1018.9
20260507090122 39 0 0.0 1.0 0.00 0.00 0.00 70 1019.0
20260507085122 39 0 0.0 0.0 0.00 0.01 0.00 70 1019.1
20260507084122 40 275 0.0 2.0 0.00 0.01 0.00 70 1019.2
20260507083122 40 0 0.0 0.0 0.00 0.01 0.00 70 1019.2
20260507082122 40 0 0.0 0.0 0.00 0.01 0.00 70 1019.4
20260507081122 40 271 0.0 2.0 0.00 0.01 0.00 69 1019.4
20260507080122 40 269 0.0 2.0 0.00 0.01 0.00 69 1019.3
20260507075122 40 0 0.0 1.0 0.00 0.01 0.00 68 1019.5
20260507074122 40 269 0.0 3.0 0.00 0.01 0.00 68 1019.4
20260507073122 40 0 0.0 0.0 0.00 0.01 0.00 68 1019.4
20260507072122 40 267 0.0 2.0 0.00 0.01 0.00 67 1019.5
20260507071122 41 267 0.0 2.0 0.00 0.01 0.00 66 1019.6
20260507070122 41 243 1.0 3.0 0.00 0.01 0.00 65 1019.7
20260507065122 41 347 0.0 2.0 0.00 0.01 0.00 64 1019.5
20260507064122 42 338 0.0 2.0 0.00 0.01 0.00 63 1019.6
20260507063122 43 0 0.0 0.0 0.00 0.01 0.00 62 1019.7
20260507062122 43 0 0.0 0.0 0.00 0.01 0.00 60 1019.6
20260507061122 43 336 1.0 3.0 0.00 0.01 0.00 60 1019.6
20260507055143 44 0 0.0 0.0 0.00 0.01 0.01 59 1019.7
20260507054122 44 0 0.0 0.0 0.00 0.01 0.01 58 1019.6
20260507053122 44 0 0.0 0.0 0.00 0.01 0.01 57 1019.6
20260507052122 45 0 0.0 0.0 0.00 0.01 0.01 56 1019.6
20260507051122 45 0 0.0 0.0 0.00 0.01 0.01 55 1019.7